User: anonymous   Login
Location: Gouy
(50.0008°N, 3.2556°E)
Time: 18:24:25
(UTC+00:00)
Language:

Cosmos 407 Rocket - Orbit

View from above orbital plane
View from above orbital plane
View from above satellite
View from above satellite

Ground track
Ground track

The orbit data is extracted from the following two-line orbital elements,

1  5175U 71035B   24205.21124872  .00000853  00000-0  28487-3 0  9992
2  5175  74.0484 116.2836 0028689  40.9755 319.3548 14.38785363787695
Epoch (UTC): 23 July 2024 05:04:11
Eccentricity: 0.0028689
inclination: 74.0484°
perigee height: 742 km
apogee height: 783 km
right ascension of ascending node: 116.2836°
argument of perigee: 40.9755°
revolutions per day: 14.38785363
mean anomaly at epoch: 319.3548°
orbit number at epoch: 78769

The dashed part of the orbit path shows where the satellite is in the earth's shadow,  

DLR